Location: Unspecified
(45.3712°N, 0.6436°E)
Time: 16:29:31
(UTC+01:00)

ISS - Visible Passes

Search period start: 13 November 2019 00:00
Search period end: 23 November 2019 00:00
Orbit: 412 x 421 km, 51.6° (Epoch: 13 November)

Date Brightness Start Highest point End Pass type
(mag) Time Alt. Az. Time Alt. Az. Time Alt. Az.
13 Nov -1.7 05:48:32 20° S 05:48:32 20° S 05:49:54 10° SSE visible
21 Nov -1.9 19:13:53 10° SSW 19:15:39 21° SSE 19:15:39 21° SSE visible
22 Nov -1.7 18:26:21 10° S 18:28:22 15° SE 18:29:25 13° ESE visible
22 Nov -1.1 20:01:19 10° WSW 20:02:20 18° WSW 20:02:20 18° WSW visible
